Location: Newark
(0.5333°S, 166.9167°E)
Time: 03:40:18
(UTC+00:00)

FALCONSAT 3 - Visible Passes

Search period start: 14 November 2019 00:00
Search period end: 24 November 2019 00:00
Orbit: 454 x 457 km, 35.4° (Epoch: 12 November)

Date Brightness Start Highest point End Pass type
(mag) Time Alt. Az. Time Alt. Az. Time Alt. Az.
21 Nov ? 08:09:33 10° NW 08:10:52 20° NNW 08:10:52 20° NNW visible
22 Nov ? 07:32:26 10° NNW 07:35:43 33° NE 07:37:09 24° E visible
23 Nov ? 08:34:16 10° W 08:37:13 23° SW 08:37:26 23° SSW visible
